Orbital Elements at Epoch 2459000.5 (2020-May-31.0) TDB
Reference: JPL 18 (heliocentric ecliptic J2000)
Element | Value | Uncertainty (1-sigma) | Units |
e | .2451914933435888 | 6.5764e-08 | |
a | 2.478873443302819 | 1.2499e-08 | au |
q | 1.871074761929636 | 1.5737e-07 | au |
i | 1.772619836356669 | 5.5118e-06 | deg |
node | 64.50139571923249 | 0.00014638 | deg |
peri | 311.2972346878208 | 0.00014684 | deg |
M | 270.669407766721 | 1.5461e-05 | deg |
tp | 2459354.234705739480 (2021-May-19.73470574) | 6.3594e-05 | TDB |
period | 1425.541809167278 3.90 | 1.0782e-05 2.952e-08 | d yr |
n | .2525355606443362 | 1.91e-09 | deg/d |
Q | 3.086672124676001 | 1.5564e-08 | au |
|
| | Orbit Determination Parameters
Additional Information
|